NIMBUS 2 DEB, 28200

Orbit data source: Space-Track

NIMBUS 2 DEB, 28200 is space debris in SSO originally from a launch on Sun, 15 May 1966 UTC launched from the Air Force Western Test Range (AFWTR). Debris objects in space refer to the collection of defunct objects orbiting the Earth. Examples of debris include non-operational satellites, rocket bodies, and fragments generated from explosions, collisions, or faulty payload assembly.

Loading next visibility...
Identifier
28200, 1966-040N
Orbit
SSO
Country
Flag of USUS
Related business
Manufacturer
Unknown
Mission
Spacecraft
Bus & Motor
Unknown
Mass
Unknown
Launch date (UTC)
1966-05-15 (60 years ago)
Launch vehicle
Unknown
Launch site
Air Force Western Test Range (AFWTR)
Object type
Payload
Rocket body
Debris
Shape & HBR
Unknown shape, 0.1 m
Radar Cross Section
Small (<0.1 m²)

Expand to show TLE details & history
Last TLE update: 1 day ago

TLE from 1 day ago
0 NIMBUS 2 DEB
1 28200U 66040N   26035.23643280 -.00001346  00000-0 -29604-2 0  9991
2 28200  99.6387 128.2864 0040576 303.5745  81.4402 13.25887033114034
Epoch: 2026-02-04T05:40Z
TLE epoch observation values (Epoch: 2026-02-04T05:40:27.793Z)
Latitude
25.11901°
Longitude
-95.77899°
Altitude
1,160.787 km
Speed
7.277 km/s
True Right ascension
08h 14m 58s
True Declination
24° 59' 39"
Sunlit
Object was in full shadow at epoch
Visualization orbit readout
Latitude
Unknown
Longitude
Unknown
Altitude
Unknown
Speed
Unknown
Apparent Right ascension
Unknown
Apparent Declination
Unknown
Sunlit
N/A
Visualization observer readout
Local Sidereal Time
11:35:23
Azimuth
Unknown
Elevation
Unknown
Doppler factor
Unknown
Orbital elements
Apogee altitude
1,190.233 km
Perigee altitude
1,129.062 km
Semi-major axis
7,537.784 km
Eccentricity
0.00406
Inclination
99.6387°
RAAN
128.2864°
Arg. of periapsis
303.5745°
True anomaly
81.90033°
Mean anomaly
81.4402°
Eccentric anomaly
81.67023°
Mean motion
3.31648 °/min
Orbital period
108.55 mins
BSTAR
-0.0029604
Loading maneuver chart data...
Computing Atmospheric mass density...
Loading historical data...
Loading historical data...
Loading historical data...
Loading historical data...
Loading historical data...
Loading historical data...
Loading historical data...

Documentation

Showing up to 5 results
|